カタログに戻る

STARLINK-30858

運用中通信VLEO
NORAD 58358·PAYLOAD·🇺🇸 United States

打ち上げ Nov 18, 2023 から Cape Canaveral Space Force Station

Loading…

次のパス (今後24時間)

TLE

最新Source: CelesTrak SupGP

元期: Sep 14, 2026, 20:57 UTC

1 58358C 23177H   26257.87340278  .00016965  00000+0  61442-3 0  2573
2 58358  43.0035   1.9129 0001537 274.7875  97.9995 15.27571900    10

AllMySatでSTARLINK-30858をリアルタイム追跡

Download on the App Store